CW2303 Weather Reports


time (UTC)temp
C
wind
direction
speed
KPH
gust
KPH
rain 1hr
cm
rain 24hr
cm
rain mn
cm
humidity
%
barometer
mb
20260510190542 20 33 8.0 20.9 0.00 0.00 0.00 44 1020.1
20260510190107 20 316 8.0 20.9 0.00 0.00 0.00 45 1020.2
20260510185543 20 24 9.7 22.5 0.00 0.00 0.00 40 1020.3
20260510185044 20 12 8.0 22.5 0.00 0.00 0.00 42 1020.2
20260510184606 20 315 12.9 22.5 0.00 0.00 0.00 44 1020.1
20260510184042 20 360 9.7 22.5 0.00 0.00 0.00 44 1020.1
20260510183545 20 349 4.8 16.1 0.00 0.00 0.00 45 1020.0
20260510183059 20 335 6.4 12.9 0.00 0.00 0.00 46 1019.8
20260510182543 20 25 3.2 24.1 0.00 0.00 0.00 45 1019.8
20260510182110 20 25 4.8 24.1 0.00 0.00 0.00 49 1019.9
20260510181620 20 52 6.4 24.1 0.00 0.00 0.00 46 1019.9
20260510181043 20 34 4.8 17.7 0.00 0.00 0.00 44 1019.9
20260510180543 20 77 4.8 17.7 0.00 0.00 0.00 47 1019.9
20260510180106 20 46 4.8 17.7 0.00 0.00 0.00 46 1019.7
20260510175542 20 161 1.6 19.3 0.00 0.00 0.00 49 1019.7
20260510175043 20 62 8.0 19.3 0.00 0.00 0.00 47 1019.7
20260510174609 20 15 8.0 19.3 0.00 0.00 0.00 44 1019.8
20260510174044 20 42 1.6 14.5 0.00 0.00 0.00 47 1019.8
20260510173543 19 22 4.8 19.3 0.00 0.00 0.00 47 1019.6
20260510173055 19 16 4.8 19.3 0.00 0.00 0.00 43 1019.7
20260510172544 19 19 4.8 19.3 0.00 0.00 0.00 43 1019.9
20260510172043 19 342 4.8 16.1 0.00 0.00 0.00 46 1019.7
20260510171620 18 103 4.8 16.1 0.00 0.00 0.00 44 1019.7
20260510171043 18 17 3.2 16.1 0.00 0.00 0.00 45 1019.6
20260510170546 18 55 4.8 19.3 0.00 0.00 0.00 46 1019.6
20260510170056 18 360 4.8 27.4 0.00 0.00 0.00 44 1019.6
20260510165543 18 36 3.2 27.4 0.00 0.00 0.00 46 1019.5
20260510165042 18 58 4.8 17.7 0.00 0.00 0.00 46 1019.5
20260510164601 18 74 6.4 17.7 0.00 0.00 0.00 46 1019.7
20260510164045 18 33 4.8 19.3 0.00 0.00 0.00 48 1019.7
20260510163543 18 334 6.4 19.3 0.00 0.00 0.00 51 1019.7
20260510163059 18 54 3.2 19.3 0.00 0.00 0.00 53 1019.6
20260510162542 17 311 3.2 25.7 0.00 0.00 0.00 54 1019.5
20260510162042 17 334 6.4 29.0 0.00 0.00 0.00 53 1019.3
20260510161555 17 327 11.3 29.0 0.00 0.00 0.00 49 1019.3
20260510161043 17 43 8.0 22.5 0.00 0.00 0.00 51 1019.2
20260510160544 17 37 12.9 22.5 0.00 0.00 0.00 52 1019.3
20260510160054 18 28 3.2 17.7 0.00 0.00 0.00 55 1019.2
20260510155543 17 0 4.8 17.7 0.00 0.00 0.00 58 1019.2
20260510155043 17 31 3.2 16.1 0.00 0.00 0.00 54 1019.0
20260510154558 17 319 1.6 16.1 0.00 0.00 0.00 53 1019.1
20260510154042 17 17 4.8 17.7 0.00 0.00 0.00 58 1018.9
20260510153544 17 333 4.8 17.7 0.00 0.00 0.00 57 1018.9
20260510153058 17 75 3.2 17.7 0.00 0.00 0.00 58 1019.1
20260510152544 17 38 0.0 12.9 0.00 0.00 0.00 60 1019.1
20260510152042 17 27 3.2 14.5 0.00 0.00 0.00 60 1019.1
20260510151601 17 336 3.2 14.5 0.00 0.00 0.00 59 1019.2
20260510151044 17 208 1.6 17.7 0.00 0.00 0.00 61 1019.2
20260510150543 17 0 3.2 17.7 0.00 0.00 0.00 58 1019.2
20260510150057 17 348 6.4 19.3 0.00 0.00 0.00 57 1019.3
20260510145542 17 344 9.7 19.3 0.00 0.00 0.00 57 1019.4
20260510145042 17 24 4.8 19.3 0.00 0.00 0.00 59 1019.4
20260510144601 17 340 4.8 19.3 0.00 0.00 0.00 61 1019.3
20260510144043 17 37 3.2 16.1 0.00 0.00 0.00 60 1019.1
20260510143543 17 348 3.2 19.3 0.00 0.00 0.00 62 1019.1
20260510143057 17 0 4.8 19.3 0.00 0.00 0.00 64 1019.0
20260510142543 17 347 6.4 19.3 0.00 0.00 0.00 65 1018.9
20260510142043 17 53 1.6 12.9 0.00 0.00 0.00 65 1018.8
20260510141552 16 336 3.2 20.9 0.00 0.00 0.00 65 1018.7
20260510141045 16 360 3.2 20.9 0.00 0.00 0.00 66 1018.6
20260510140544 16 340 6.4 17.7 0.00 0.00 0.00 66 1018.5
20260510140053 16 29 6.4 17.7 0.00 0.00 0.00 65 1018.5
20260510135545 16 360 4.8 14.5 0.00 0.00 0.00 67 1018.3
20260510135045 16 61 3.2 20.9 0.00 0.00 0.00 69 1018.4
20260510134552 16 42 3.2 20.9 0.00 0.00 0.00 68 1018.3
20260510134044 16 66 4.8 20.9 0.00 0.00 0.00 71 1018.2
20260510133544 16 347 6.4 20.9 0.00 0.00 0.00 72 1018.1
20260510133053 16 345 4.8 17.7 0.00 0.00 0.00 73 1018.1
20260510132546 15 29 6.4 17.7 0.00 0.00 0.00 74 1018.1
20260510132044 15 0 4.8 14.5 0.00 0.00 0.00 75 1018.1
20260510131557 15 343 3.2 16.1 0.00 0.00 0.00 76 1017.9
20260510131049 15 38 1.6 17.7 0.00 0.00 0.00 76 1017.7
20260510130545 15 63 1.6 17.7 0.00 0.00 0.00 77 1017.5
20260510130054 15 9 4.8 17.7 0.00 0.00 0.00 77 1017.5
20260510125544 15 57 3.2 12.9 0.00 0.00 0.00 78 1017.4
20260510125045 15 319 1.6 12.9 0.00 0.00 0.00 78 1017.4
20260510124552 14 85 3.2 14.5 0.00 0.00 0.00 78 1017.2
20260510124045 14 17 1.6 14.5 0.00 0.00 0.00 79 1017.3
20260510123545 14 31 3.2 14.5 0.00 0.00 0.00 79 1017.2
20260510123057 14 57 3.2 9.7 0.00 0.00 0.00 79 1017.1
20260510122547 14 0 1.6 8.0 0.00 0.00 0.00 80 1016.9
20260510122044 13 53 1.6 8.0 0.00 0.00 0.00 81 1016.8
20260510121555 13 318 1.6 8.0 0.00 0.00 0.00 81 1016.8
20260510121045 13 323 1.6 6.4 0.00 0.00 0.00 82 1016.8
20260510120544 13 0 0.0 8.0 0.00 0.00 0.00 82 1016.8
20260510120054 13 0 0.0 8.0 0.00 0.00 0.00 82 1016.9
20260510115545 13 0 1.6 8.0 0.00 0.00 0.00 82 1016.7
20260510115044 13 0 0.0 4.8 0.00 0.00 0.00 82 1016.5
20260510114558 13 32 0.0 4.8 0.00 0.00 0.00 82 1016.4
20260510114044 13 0 0.0 4.8 0.00 0.00 0.00 82 1016.5
20260510113545 13 0 0.0 6.4 0.00 0.00 0.00 82 1016.4
20260510113058 13 0 1.6 6.4 0.00 0.00 0.00 81 1016.3
20260510112545 13 346 1.6 6.4 0.00 0.00 0.00 81 1016.2
20260510112045 13 341 1.6 6.4 0.00 0.00 0.00 82 1016.2
20260510111551 13 15 1.6 6.4 0.00 0.00 0.00 82 1016.2
20260510111045 13 0 0.0 3.2 0.00 0.00 0.00 82 1016.1
20260510110545 13 0 0.0 1.6 0.00 0.00 0.00 82 1015.9
20260510110057 13 0 0.0 1.6 0.00 0.00 0.00 82 1015.8
20260510105543 13 0 0.0 1.6 0.00 0.00 0.00 81 1015.8
20260510105043 14 0 0.0 0.0 0.00 0.00 0.00 80 1015.9
20260510104551 14 0 0.0 1.6 0.00 0.00 0.00 79 1015.9
20260510104043 14 0 0.0 6.4 0.00 0.00 0.00 79 1016.0
20260510103543 14 0 0.0 6.4 0.00 0.00 0.00 78 1015.8
20260510103054 15 40 0.0 6.4 0.00 0.00 0.00 77 1015.8
20260510102544 15 17 0.0 9.7 0.00 0.00 0.00 77 1015.6
20260510102044 15 59 1.6 9.7 0.00 0.00 0.00 76 1015.6
20260510101603 15 13 1.6 11.3 0.00 0.00 0.00 76 1015.6
20260510101043 15 13 1.6 11.3 0.00 0.00 0.00 76 1015.5
20260510100543 15 0 0.0 4.8 0.00 0.00 0.00 76 1015.4
20260510100054 14 22 0.0 0.0 0.00 0.00 0.00 77 1015.0
20260510095543 14 0 0.0 0.0 0.00 0.03 0.00 76 1014.9
20260510095042 14 0 0.0 0.0 0.00 0.03 0.00 76 1014.8
20260510094555 15 0 0.0 0.0 0.00 0.03 0.00 74 1014.9
20260510094047 15 0 0.0 1.6 0.00 0.03 0.00 73 1014.8
20260510093543 15 0 0.0 1.6 0.00 0.03 0.00 72 1014.6
20260510093052 15 0 0.0 1.6 0.00 0.03 0.00 71 1014.7
20260510092543 15 43 0.0 1.6 0.00 0.03 0.00 71 1014.6
20260510092042 15 0 0.0 1.6 0.00 0.03 0.00 71 1014.6
20260510091558 15 0 0.0 1.6 0.00 0.03 0.00 73 1014.7
20260510091042 14 0 0.0 1.6 0.00 0.03 0.00 75 1014.7
20260510090544 13 0 0.0 1.6 0.00 0.03 0.00 77 1014.6
20260510090114 13 0 0.0 1.6 0.00 0.03 0.00 80 1014.5
20260510085543 13 0 0.0 0.0 0.00 0.03 0.00 80 1014.4
20260510085043 13 0 0.0 0.0 0.00 0.03 0.00 80 1014.3
20260510084609 13 0 0.0 0.0 0.00 0.03 0.00 79 1014.1
20260510084044 13 0 0.0 0.0 0.00 0.03 0.00 79 1014.1
20260510083543 13 0 0.0 0.0 0.00 0.03 0.00 79 1014.1
20260510083054 13 0 0.0 1.6 0.00 0.03 0.00 80 1014.1
20260510082543 13 0 0.0 1.6 0.00 0.03 0.00 80 1014.0
20260510082043 13 0 0.0 1.6 0.00 0.03 0.00 81 1014.0
20260510081554 13 146 0.0 1.6 0.00 0.03 0.00 81 1014.1
20260510081043 13 0 0.0 0.0 0.00 0.03 0.00 81 1014.2
20260510080543 13 0 0.0 0.0 0.00 0.03 0.00 80 1014.3
20260510075543 13 0 0.0 0.0 0.00 0.03 0.00 79 1014.1
20260510075043 13 0 0.0 0.0 0.00 0.03 0.00 78 1014.1
20260510074556 14 0 0.0 0.0 0.00 0.03 0.00 77 1014.0
20260510074043 14 0 0.0 0.0 0.00 0.03 0.00 76 1014.0
20260510073543 14 0 0.0 0.0 0.00 0.03 0.00 73 1014.0
20260510073058 14 0 0.0 0.0 0.00 0.03 0.00 74 1013.9
20260510072543 14 0 0.0 0.0 0.00 0.03 0.00 74 1014.0
20260510072043 14 0 0.0 0.0 0.00 0.03 0.00 72 1014.0
20260510071553 14 0 0.0 0.0 0.00 0.03 0.00 72 1014.0
20260510071043 14 0 0.0 0.0 0.00 0.03 0.00 72 1014.0
20260510070543 14 0 0.0 0.0 0.00 0.03 0.00 72 1014.0
20260510065543 14 0 0.0 0.0 0.00 0.03 0.00 72 1013.9
20260510065043 14 0 0.0 0.0 0.00 0.03 0.00 71 1013.9
20260510064556 14 0 0.0 0.0 0.00 0.03 0.00 72 1014.0
20260510064044 14 0 0.0 0.0 0.00 0.03 0.00 72 1014.0
20260510063543 14 0 0.0 0.0 0.00 0.03 0.00 73 1014.1
20260510063053 14 0 0.0 0.0 0.00 0.03 0.00 73 1013.9
20260510062543 14 0 0.0 0.0 0.00 0.03 0.00 72 1014.0
20260510062042 14 0 0.0 1.6 0.00 0.03 0.00 72 1014.0
20260510061555 15 0 0.0 1.6 0.00 0.03 0.00 71 1014.1
20260510061044 15 0 0.0 0.0 0.00 0.03 0.00 70 1013.9
20260510060544 15 0 0.0 0.0 0.00 0.03 0.00 69 1014.0
20260510060100 15 0 0.0 0.0 0.00 0.03 0.00 67 1014.0
20260510055545 15 0 0.0 0.0 0.00 0.03 0.00 67 1014.0
20260510055043 15 0 0.0 0.0 0.00 0.03 0.00 66 1014.1
20260510054553 16 0 0.0 0.0 0.00 0.03 0.00 66 1014.0
20260510054044 16 0 0.0 0.0 0.00 0.03 0.00 65 1014.0
20260510053543 16 0 0.0 1.6 0.00 0.03 0.00 65 1014.1
20260510053055 16 321 0.0 6.4 0.00 0.03 0.00 65 1014.2
20260510052544 16 0 0.0 11.3 0.00 0.03 0.00 67 1014.1
20260510052046 15 308 4.8 11.3 0.00 0.03 0.00 69 1014.1
20260510051604 15 327 0.0 0.0 0.00 0.03 0.00 70 1013.8
20260510051044 15 0 0.0 0.0 0.00 0.03 0.00 69 1013.5
20260510050548 15 0 0.0 0.0 0.00 0.03 0.00 68 1013.4
20260510050105 15 0 0.0 0.0 0.00 0.03 0.00 69 1013.4
20260510045545 15 0 0.0 0.0 0.00 0.03 0.03 69 1013.4
20260510045045 15 0 0.0 0.0 0.00 0.03 0.03 68 1013.4
20260510044553 15 0 0.0 0.0 0.00 0.03 0.03 67 1013.4
20260510044041 15 0 0.0 0.0 0.00 0.03 0.03 68 1013.3
20260510043544 15 0 0.0 0.0 0.00 0.03 0.03 68 1013.3
20260510043058 15 0 0.0 0.0 0.00 0.03 0.03 68 1013.2
20260510042546 15 0 0.0 0.0 0.00 0.03 0.03 68 1013.2
20260510042045 16 0 0.0 0.0 0.00 0.03 0.03 67 1013.1
20260510041605 16 0 0.0 0.0 0.00 0.03 0.03 67 1013.0
20260510041045 16 0 0.0 0.0 0.00 0.03 0.03 67 1012.9
20260510040547 16 0 0.0 0.0 0.00 0.03 0.03 68 1012.9
20260510040103 15 0 0.0 0.0 0.00 0.03 0.03 69 1012.9
20260510035545 16 0 0.0 0.0 0.00 0.03 0.03 69 1012.9
20260510035045 16 0 0.0 0.0 0.00 0.03 0.03 67 1013.0
20260510034553 16 0 0.0 0.0 0.00 0.03 0.03 64 1013.0
20260510034045 16 0 0.0 0.0 0.00 0.03 0.03 64 1013.0
20260510033546 16 0 0.0 0.0 0.00 0.03 0.03 64 1012.9
20260510033059 16 0 0.0 0.0 0.00 0.03 0.03 65 1013.0
20260510032541 16 0 0.0 0.0 0.00 0.03 0.03 66 1012.8
20260510032042 16 0 0.0 0.0 0.00 0.03 0.03 66 1012.9
20260510031559 17 0 0.0 0.0 0.00 0.03 0.03 65 1012.8
20260510031044 17 0 0.0 0.0 0.00 0.03 0.03 63 1012.8
20260510030544 17 0 0.0 0.0 0.00 0.03 0.03 59 1012.9
20260510030058 17 0 0.0 0.0 0.00 0.03 0.03 59 1012.8
20260510025545 17 0 0.0 0.0 0.00 0.03 0.03 59 1012.7
20260510025140 17 0 0.0 1.6 0.00 0.03 0.03 59 1012.5
20260510024600 17 0 0.0 1.6 0.00 0.03 0.03 61 1012.5
20260510024045 18 0 0.0 0.0 0.00 0.03 0.03 60 1012.4
20260510023545 18 0 0.0 0.0 0.00 0.03 0.03 59 1012.2
20260510023057 18 0 0.0 0.0 0.00 0.03 0.03 58 1012.0
20260510022545 18 0 0.0 0.0 0.00 0.03 0.03 57 1011.8
20260510022045 18 0 0.0 0.0 0.00 0.03 0.03 57 1012.0
20260510021646 18 0 0.0 0.0 0.00 0.03 0.03 56 1011.8
20260510021044 18 0 0.0 0.0 0.00 0.03 0.03 55 1011.7
20260510020543 18 0 0.0 0.0 0.00 0.03 0.03 54 1011.6
20260510020059 19 0 0.0 0.0 0.00 0.03 0.03 54 1011.5
20260510015546 19 0 0.0 0.0 0.00 0.03 0.03 52 1011.4
20260510015043 19 0 0.0 0.0 0.00 0.03 0.03 52 1011.3
20260510014558 19 0 0.0 0.0 0.00 0.03 0.03 53 1011.3
20260510014044 19 0 0.0 0.0 0.00 0.03 0.03 52 1011.1
20260510013544 20 0 0.0 0.0 0.00 0.03 0.03 52 1011.0
20260510013101 20 0 0.0 0.0 0.00 0.03 0.03 53 1011.0
20260510012544 20 0 0.0 0.0 0.00 0.03 0.03 54 1010.9
20260510012045 20 0 0.0 0.0 0.00 0.03 0.03 52 1010.9
20260510011555 21 0 0.0 0.0 0.00 0.03 0.03 50 1010.7
20260510011045 21 0 0.0 0.0 0.00 0.03 0.03 49 1010.7
20260510010544 21 0 0.0 0.0 0.00 0.03 0.03 51 1010.7
20260510010100 21 0 0.0 0.0 0.00 0.03 0.03 50 1010.7
20260510005544 22 0 0.0 0.0 0.00 0.03 0.03 45 1010.6
20260510005045 22 0 0.0 0.0 0.00 0.03 0.03 45 1010.5
20260510004556 22 0 0.0 0.0 0.00 0.03 0.03 46 1010.4
20260510004044 22 0 0.0 0.0 0.00 0.03 0.03 46 1010.6
20260510003546 22 0 0.0 0.0 0.00 0.03 0.03 47 1010.4
20260510003054 22 0 0.0 0.0 0.00 0.03 0.03 44 1010.3
20260510002544 22 0 0.0 0.0 0.00 0.03 0.03 45 1010.4
20260510002044 22 0 0.0 0.0 0.00 0.03 0.03 47 1010.4
20260510001551 23 0 0.0 0.0 0.00 0.03 0.03 45 1010.4
20260510001044 23 0 0.0 0.0 0.00 0.03 0.03 46 1010.3
20260510000544 23 0 0.0 0.0 0.00 0.03 0.03 42 1010.5
20260510000052 23 0 0.0 0.0 0.00 0.03 0.03 42 1010.4
20260509235543 24 0 0.0 1.6 0.00 0.03 0.03 43 1010.3
20260509235044 25 0 0.0 1.6 0.00 0.03 0.03 41 1010.4
20260509234551 25 0 0.0 0.0 0.00 0.03 0.03 33 1010.4
20260509234044 25 0 0.0 1.6 0.00 0.03 0.03 33 1010.4
20260509233544 26 0 0.0 1.6 0.00 0.03 0.03 32 1010.4
20260509233054 26 0 0.0 1.6 0.00 0.03 0.03 34 1010.4
20260509232544 26 0 0.0 1.6 0.00 0.03 0.03 34 1010.4
20260509232044 26 236 0.0 4.8 0.00 0.03 0.03 34 1010.3
20260509231553 26 0 0.0 4.8 0.00 0.03 0.03 33 1010.4
20260509231043 26 246 0.0 3.2 0.00 0.03 0.03 34 1010.4
20260509230543 26 264 0.0 4.8 0.00 0.03 0.03 32 1010.3
20260509230059 26 152 1.6 12.9 0.00 0.03 0.03 31 1010.3
20260509225544 26 284 4.8 12.9 0.00 0.03 0.03 31 1010.4
20260509225043 26 250 3.2 11.3 0.00 0.03 0.03 34 1010.3
20260509224553 26 242 3.2 11.3 0.00 0.03 0.03 32 1010.3
20260509224043 26 276 3.2 6.4 0.00 0.03 0.03 33 1010.3
20260509223543 26 244 1.6 6.4 0.00 0.03 0.03 33 1010.4
20260509223057 26 236 3.2 8.0 0.00 0.03 0.03 32 1010.4
20260509222545 26 260 1.6 11.3 0.00 0.03 0.03 33 1010.4
20260509222043 26 240 4.8 12.9 0.00 0.03 0.03 36 1010.4
20260509221556 26 263 4.8 12.9 0.00 0.03 0.03 33 1010.3
20260509221042 26 274 3.2 12.9 0.00 0.03 0.03 32 1010.3
20260509220543 26 0 3.2 9.7 0.00 0.03 0.03 31 1010.3
20260509220054 26 0 0.0 12.9 0.00 0.03 0.03 33 1010.3
20260509215543 26 297 3.2 12.9 0.00 0.03 0.03 35 1010.2
20260509215043 26 337 3.2 9.7 0.00 0.03 0.03 34 1010.4
20260509214556 26 268 4.8 14.5 0.00 0.03 0.03 31 1010.3
20260509214043 26 263 8.0 19.3 0.00 0.03 0.03 31 1010.3
20260509213543 26 294 8.0 19.3 0.00 0.03 0.03 34 1010.2
20260509213108 26 267 3.2 17.7 0.00 0.03 0.03 34 1010.3
20260509212543 26 350 3.2 8.0 0.00 0.03 0.03 33 1010.3
20260509212043 26 336 3.2 8.0 0.00 0.03 0.03 34 1010.3
20260509211602 26 286 1.6 11.3 0.00 0.03 0.03 31 1010.4
20260509211043 26 304 4.8 16.1 0.00 0.03 0.03 32 1010.4
20260509210544 26 266 4.8 16.1 0.00 0.03 0.03 31 1010.6
20260509210053 26 280 4.8 16.1 0.00 0.03 0.03 32 1010.6
20260509205547 26 267 3.2 16.1 0.00 0.03 0.03 36 1010.6
20260509205044 26 312 3.2 16.1 0.00 0.03 0.03 31 1010.6
20260509204555 26 258 8.0 14.5 0.00 0.03 0.03 32 1010.6
20260509204044 26 302 0.0 9.7 0.00 0.03 0.03 31 1010.6
20260509203543 26 0 1.6 14.5 0.00 0.03 0.03 31 1010.7
20260509203054 26 311 4.8 14.5 0.00 0.03 0.03 32 1010.7
20260509202543 26 297 3.2 17.7 0.00 0.03 0.03 35 1010.9
20260509202043 26 296 6.4 19.3 0.00 0.03 0.03 31 1010.9
20260509201558 26 47 8.0 19.3 0.00 0.03 0.03 31 1011.0
20260509201043 26 295 8.0 19.3 0.00 0.03 0.03 32 1011.0
20260509200544 26 265 4.8 16.1 0.00 0.03 0.03 37 1011.1
20260509200055 26 255 3.2 14.5 0.00 0.03 0.03 35 1011.2
20260509195543 26 271 1.6 16.1 0.00 0.03 0.03 33 1011.3
20260509195045 25 283 4.8 22.5 0.00 0.03 0.03 32 1011.3
20260509194559 25 294 6.4 22.5 0.00 0.03 0.03 33 1011.3
20260509194043 25 268 12.9 22.5 0.00 0.03 0.03 32 1011.4
20260509193544 25 273 9.7 20.9 0.00 0.03 0.03 32 1011.3
20260509193056 25 269 8.0 17.7 0.00 0.03 0.03 34 1011.3
20260509192543 25 261 4.8 19.3 0.00 0.03 0.03 39 1011.2
20260509192043 25 284 9.7 19.3 0.00 0.03 0.03 37 1011.3
20260509191607 25 276 8.0 17.7 0.00 0.03 0.03 38 1011.3
20260509191042 25 254 11.3 17.7 0.00 0.03 0.03 37 1011.3